TimeCST,TemperatureF,Dew PointF,Humidity,Sea Level PressureIn,VisibilityMPH,Wind Direction,Wind SpeedMPH,Gust SpeedMPH,PrecipitationIn,Events,Conditions,WindDirDegrees,DateUTC
12:52 AM,12.9,6.1,74,30.21,-9999.0,WSW,8.1,-,N/A,,Unknown,240,2013-01-04 06:52:00
1:52 AM,14.0,6.1,71,30.18,-9999.0,West,11.5,-,N/A,,Unknown,260,2013-01-04 07:52:00
2:52 AM,10.9,5.0,77,30.19,-9999.0,West,8.1,-,N/A,,Unknown,260,2013-01-04 08:52:00
3:52 AM,16.0,6.1,65,30.18,-9999.0,WNW,10.4,-,N/A,,Unknown,290,2013-01-04 09:52:00
4:52 AM,16.0,6.1,65,30.18,-9999.0,WNW,8.1,-,N/A,,Unknown,290,2013-01-04 10:52:00
5:52 AM,12.9,5.0,71,30.19,-9999.0,West,9.2,-,N/A,,Unknown,260,2013-01-04 11:52:00
6:52 AM,14.0,5.0,67,30.20,-9999.0,WSW,9.2,-,N/A,,Unknown,250,2013-01-04 12:52:00
7:52 AM,12.0,3.9,70,30.20,-9999.0,West,6.9,-,N/A,,Unknown,260,2013-01-04 13:52:00
8:52 AM,12.9,3.9,67,30.20,-9999.0,West,11.5,-,N/A,,Unknown,270,2013-01-04 14:52:00
9:52 AM,15.1,6.1,68,30.22,-9999.0,West,10.4,-,N/A,,Unknown,260,2013-01-04 15:52:00
10:52 AM,19.0,9.0,65,30.23,-9999.0,West,5.8,-,N/A,,Unknown,260,2013-01-04 16:52:00
11:52 AM,21.0,10.0,63,30.22,-9999.0,SSW,5.8,-,N/A,,Unknown,210,2013-01-04 17:52:00
12:52 PM,25.0,12.0,58,30.19,-9999.0,West,6.9,-,N/A,,Unknown,280,2013-01-04 18:52:00
1:52 PM,27.0,12.9,56,30.16,-9999.0,West,3.5,-,N/A,,Unknown,260,2013-01-04 19:52:00
2:52 PM,28.0,12.9,53,30.15,-9999.0,West,3.5,-,N/A,,Unknown,280,2013-01-04 20:52:00
3:52 PM,27.0,12.9,56,30.14,-9999.0,Calm,Calm,-,N/A,,Unknown,0,2013-01-04 21:52:00
4:52 PM,25.0,12.9,60,30.15,-9999.0,Calm,Calm,-,N/A,,Unknown,0,2013-01-04 22:52:00
5:52 PM,19.0,10.0,68,30.15,-9999.0,SSE,6.9,-,N/A,,Unknown,150,2013-01-04 23:52:00
6:52 PM,21.9,12.0,66,30.14,-9999.0,SE,4.6,-,N/A,,Unknown,130,2013-01-05 00:52:00
7:52 PM,17.1,9.0,71,30.13,-9999.0,SE,3.5,-,N/A,,Unknown,140,2013-01-05 01:52:00
8:52 PM,17.1,9.0,71,30.12,-9999.0,North,5.8,-,N/A,,Unknown,350,2013-01-05 02:52:00
9:52 PM,15.1,8.1,74,30.11,-9999.0,ENE,3.5,-,N/A,,Unknown,60,2013-01-05 03:52:00
10:52 PM,14.0,8.1,77,30.12,-9999.0,North,3.5,-,N/A,,Unknown,350,2013-01-05 04:52:00
11:52 PM,8.1,3.9,83,30.10,-9999.0,SSE,3.5,-,N/A,,Unknown,150,2013-01-05 05:52:00